Date_UTC,IAGA,MLT,MLAT,IGRF_DECL,SZA,N,E,Z
2015-08-15 08:00:00,BRW,19.94,70.60,16.69,90.83,6.9,9.6,4.4
2015-08-15 08:01:00,BRW,19.96,70.60,16.69,90.88,9.0,7.8,4.1
2015-08-15 08:02:00,BRW,19.98,70.60,16.69,90.93,10.8,6.8,3.9
2015-08-15 08:03:00,BRW,19.99,70.60,16.69,90.97,13.7,6.4,4.2
2015-08-15 08:04:00,BRW,20.01,70.60,16.69,91.02,15.8,7.0,4.9
2015-08-15 08:05:00,BRW,20.03,70.60,16.69,91.07,16.3,7.7,5.9
2015-08-15 08:06:00,BRW,20.04,70.60,16.69,91.11,15.2,10.0,6.7
2015-08-15 08:07:00,BRW,20.06,70.60,16.69,91.16,16.7,12.0,7.3
2015-08-15 08:08:00,BRW,20.08,70.60,16.69,91.21,19.8,12.6,7.4
2015-08-15 08:09:00,BRW,20.09,70.60,16.69,91.25,23.5,13.9,7.8
2015-08-15 08:10:00,BRW,20.11,70.60,16.69,91.30,27.4,15.0,8.6
2015-08-15 08:11:00,BRW,20.13,70.60,16.69,91.34,28.1,13.5,8.6
2015-08-15 08:12:00,BRW,20.14,70.60,16.69,91.39,27.5,10.9,7.9
2015-08-15 08:13:00,BRW,20.16,70.60,16.69,91.43,27.0,9.5,7.4
2015-08-15 08:14:00,BRW,20.18,70.60,16.69,91.47,25.6,8.6,6.7
2015-08-15 08:15:00,BRW,20.19,70.60,16.69,91.52,24.9,7.4,6.2
2015-08-15 08:16:00,BRW,20.21,70.60,16.69,91.56,23.4,6.8,6.1
2015-08-15 08:17:00,BRW,20.23,70.60,16.69,91.61,21.9,8.3,7.0
2015-08-15 08:18:00,BRW,20.24,70.60,16.69,91.65,22.6,9.4,8.0
2015-08-15 08:19:00,BRW,20.26,70.60,16.69,91.69,26.8,10.6,8.6
2015-08-15 08:20:00,BRW,20.28,70.60,16.69,91.73,28.5,11.7,8.5
2015-08-15 08:21:00,BRW,20.30,70.60,16.69,91.78,27.2,11.9,8.0
2015-08-15 08:22:00,BRW,20.31,70.60,16.69,91.82,19.8,13.3,7.3
2015-08-15 08:23:00,BRW,20.33,70.60,16.69,91.86,13.6,14.2,6.0
2015-08-15 08:24:00,BRW,20.35,70.60,16.69,91.90,10.0,13.5,4.3
2015-08-15 08:25:00,BRW,20.36,70.60,16.69,91.94,12.2,6.7,1.4
2015-08-15 08:26:00,BRW,20.38,70.60,16.69,91.98,22.5,-3.0,-1.4
2015-08-15 08:27:00,BRW,20.40,70.60,16.69,92.02,31.4,-2.9,0.2
2015-08-15 08:28:00,BRW,20.41,70.60,16.69,92.07,32.6,1.6,2.0
2015-08-15 08:29:00,BRW,20.43,70.60,16.69,92.11,29.0,4.1,2.2
2015-08-15 08:30:00,BRW,20.45,70.60,16.69,92.14,16.4,16.8,4.2
2015-08-15 08:31:00,BRW,20.46,70.60,16.69,92.18,11.1,20.1,4.1
2015-08-15 08:32:00,BRW,20.48,70.60,16.69,92.22,-12.6,-0.3,-1.3
2015-08-15 08:33:00,BRW,20.50,70.60,16.69,92.26,-20.6,-42.5,-11.2
2015-08-15 08:34:00,BRW,20.51,70.60,16.69,92.30,24.6,-65.5,-12.2
2015-08-15 08:35:00,BRW,20.53,70.60,16.69,92.34,51.6,-72.8,-11.7
2015-08-15 08:36:00,BRW,20.55,70.60,16.69,92.38,64.7,-68.6,-3.6
2015-08-15 08:37:00,BRW,20.56,70.60,16.69,92.41,34.5,-58.0,0.9
2015-08-15 08:38:00,BRW,20.58,70.60,16.69,92.45,32.2,-85.8,-5.1
2015-08-15 08:39:00,BRW,20.60,70.60,16.69,92.49,60.6,-102.3,-3.7
2015-08-15 08:40:00,BRW,20.61,70.60,16.69,92.53,63.7,-98.0,0.4
2015-08-15 08:41:00,BRW,20.63,70.60,16.69,92.56,66.6,-88.6,7.4
2015-08-15 08:42:00,BRW,20.65,70.60,16.69,92.60,77.9,-94.6,11.2
2015-08-15 08:43:00,BRW,20.66,70.60,16.69,92.63,87.2,-103.7,11.0
2015-08-15 08:44:00,BRW,20.68,70.60,16.69,92.67,69.3,-117.5,8.6
2015-08-15 08:45:00,BRW,20.70,70.60,16.69,92.71,41.1,-135.1,6.3
2015-08-15 08:46:00,BRW,20.71,70.60,16.69,92.74,-22.2,-141.5,-1.7
2015-08-15 08:47:00,BRW,20.73,70.60,16.69,92.77,-15.2,-118.9,2.7
2015-08-15 08:48:00,BRW,20.75,70.60,16.69,92.81,15.0,-146.6,-4.1
2015-08-15 08:49:00,BRW,20.76,70.60,16.69,92.84,32.0,-180.2,-15.9
2015-08-15 08:50:00,BRW,20.78,70.60,16.69,92.88,59.5,-223.2,-25.0
2015-08-15 08:51:00,BRW,20.80,70.60,16.69,92.91,70.9,-244.7,-20.2
2015-08-15 08:52:00,BRW,20.81,70.60,16.69,92.94,84.0,-238.8,-4.9
2015-08-15 08:53:00,BRW,20.83,70.60,16.69,92.98,98.0,-213.5,11.1
2015-08-15 08:54:00,BRW,20.85,70.60,16.69,93.01,58.1,-201.1,15.4
2015-08-15 08:55:00,BRW,20.86,70.60,16.69,93.04,50.3,-194.7,19.2
2015-08-15 08:56:00,BRW,20.88,70.60,16.69,93.07,42.2,-193.8,17.5
2015-08-15 08:57:00,BRW,20.90,70.60,16.69,93.10,41.2,-209.2,11.4
2015-08-15 08:58:00,BRW,20.91,70.60,16.69,93.14,27.6,-161.5,23.9
2015-08-15 08:59:00,BRW,20.93,70.60,16.69,93.17,48.9,-152.4,27.8
2015-08-15 09:00:00,BRW,20.95,70.60,16.69,93.20,40.6,-135.7,30.5
2015-08-15 09:01:00,BRW,20.96,70.60,16.69,93.23,36.8,-148.3,17.5
2015-08-15 09:02:00,BRW,20.98,70.60,16.69,93.26,-6.7,-151.1,-3.8
2015-08-15 09:03:00,BRW,21.00,70.60,16.69,93.29,-54.1,-150.7,-23.6
2015-08-15 09:04:00,BRW,21.02,70.60,16.69,93.32,-43.4,-112.7,-36.2
2015-08-15 09:05:00,BRW,21.03,70.60,16.69,93.35,-76.3,-41.0,-44.0
2015-08-15 09:06:00,BRW,21.05,70.60,16.69,93.38,-151.0,-36.6,-76.3
2015-08-15 09:07:00,BRW,21.07,70.60,16.69,93.40,-177.9,-22.4,-101.7
2015-08-15 09:08:00,BRW,21.08,70.60,16.69,93.43,-199.1,-14.3,-112.3
2015-08-15 09:09:00,BRW,21.10,70.60,16.69,93.46,-204.8,-32.8,-121.7
2015-08-15 09:10:00,BRW,21.12,70.60,16.69,93.49,-171.2,-47.9,-106.9
2015-08-15 09:11:00,BRW,21.13,70.60,16.69,93.51,-147.2,-89.7,-89.3
2015-08-15 09:12:00,BRW,21.15,70.60,16.69,93.54,-87.8,-99.2,-62.9
2015-08-15 09:13:00,BRW,21.17,70.60,16.69,93.57,-61.2,-156.2,-56.9
2015-08-15 09:14:00,BRW,21.18,70.60,16.69,93.59,-37.9,-220.6,-52.0
2015-08-15 09:15:00,BRW,21.20,70.60,16.69,93.62,-75.8,-194.6,-44.4
2015-08-15 09:16:00,BRW,21.22,70.60,16.69,93.65,-9.3,-201.0,-24.0
2015-08-15 09:17:00,BRW,21.23,70.60,16.69,93.67,-7.3,-169.9,-2.3
2015-08-15 09:18:00,BRW,21.25,70.60,16.69,93.70,-29.4,-178.1,-4.0
2015-08-15 09:19:00,BRW,21.27,70.60,16.69,93.72,-7.8,-162.1,-10.8
2015-08-15 09:20:00,BRW,21.28,70.60,16.69,93.74,6.9,-133.4,-22.1
2015-08-15 09:21:00,BRW,21.30,70.60,16.69,93.77,-68.4,-124.9,-52.9
2015-08-15 09:22:00,BRW,21.32,70.60,16.69,93.79,-168.6,-113.3,-85.8
2015-08-15 09:23:00,BRW,21.33,70.60,16.69,93.82,-263.6,-110.2,-104.0
2015-08-15 09:24:00,BRW,21.35,70.60,16.69,93.84,-287.9,-114.3,-87.2
2015-08-15 09:25:00,BRW,21.37,70.60,16.69,93.86,-286.9,-105.9,-52.1
2015-08-15 09:26:00,BRW,21.38,70.60,16.69,93.88,-182.5,-141.9,-19.6
2015-08-15 09:27:00,BRW,21.40,70.60,16.69,93.91,-162.5,-173.3,1.8
2015-08-15 09:28:00,BRW,21.42,70.60,16.69,93.93,-133.1,-184.6,20.2
2015-08-15 09:29:00,BRW,21.43,70.60,16.69,93.95,-104.0,-191.1,31.7
2015-08-15 09:30:00,BRW,21.45,70.60,16.69,93.97,-120.9,-225.4,24.8
2015-08-15 09:31:00,BRW,21.47,70.60,16.69,93.99,-110.7,-168.5,45.6
2015-08-15 09:32:00,BRW,21.48,70.60,16.69,94.01,-86.8,-111.4,69.0
2015-08-15 09:33:00,BRW,21.50,70.60,16.69,94.03,-91.9,-113.7,67.3
2015-08-15 09:34:00,BRW,21.52,70.60,16.69,94.05,-86.0,-138.6,58.5
2015-08-15 09:35:00,BRW,21.54,70.60,16.69,94.07,-69.4,-144.1,62.3
2015-08-15 09:36:00,BRW,21.55,70.60,16.69,94.09,-81.9,-133.9,69.9
2015-08-15 09:37:00,BRW,21.57,70.60,16.69,94.11,-114.0,-106.1,79.9
2015-08-15 09:38:00,BRW,21.59,70.60,16.69,94.13,-137.0,-95.3,83.2
2015-08-15 09:39:00,BRW,21.60,70.60,16.69,94.14,-137.2,-98.8,83.2
2015-08-15 09:40:00,BRW,21.62,70.60,16.69,94.16,-115.9,-103.9,86.0
2015-08-15 09:41:00,BRW,21.64,70.60,16.69,94.18,-126.2,-81.2,93.7
2015-08-15 09:42:00,BRW,21.65,70.60,16.69,94.20,-151.3,-64.3,93.4
2015-08-15 09:43:00,BRW,21.67,70.60,16.69,94.21,-135.2,-60.0,91.6
2015-08-15 09:44:00,BRW,21.69,70.60,16.69,94.23,-111.5,-93.6,81.2
2015-08-15 09:45:00,BRW,21.70,70.60,16.69,94.25,-114.5,-123.3,74.0
2015-08-15 09:46:00,BRW,21.72,70.60,16.69,94.26,-99.4,-127.0,81.9
2015-08-15 09:47:00,BRW,21.74,70.60,16.69,94.28,-68.7,-112.8,93.2
2015-08-15 09:48:00,BRW,21.75,70.60,16.69,94.29,-89.5,-111.3,89.3
2015-08-15 09:49:00,BRW,21.77,70.60,16.69,94.31,-116.7,-107.6,84.4
2015-08-15 09:50:00,BRW,21.79,70.60,16.69,94.32,-129.0,-117.2,78.3
2015-08-15 09:51:00,BRW,21.80,70.60,16.69,94.34,-100.3,-106.4,88.3
2015-08-15 09:52:00,BRW,21.82,70.60,16.69,94.35,-58.3,-96.8,102.6
2015-08-15 09:53:00,BRW,21.84,70.60,16.69,94.36,-40.2,-80.3,112.3
2015-08-15 09:54:00,BRW,21.85,70.60,16.69,94.38,-49.6,-50.5,118.4
2015-08-15 09:55:00,BRW,21.87,70.60,16.69,94.39,-47.7,-24.0,121.5
2015-08-15 09:56:00,BRW,21.89,70.60,16.69,94.40,-31.0,-8.9,121.5
2015-08-15 09:57:00,BRW,21.90,70.60,16.69,94.41,-30.3,-9.4,114.7
2015-08-15 09:58:00,BRW,21.92,70.60,16.69,94.43,-6.9,-19.5,108.7
2015-08-15 09:59:00,BRW,21.94,70.60,16.69,94.44,21.6,-23.9,108.0
2015-08-15 10:00:00,BRW,21.95,70.60,16.69,94.45,46.6,-33.2,106.8
2015-08-15 10:01:00,BRW,21.97,70.60,16.69,94.46,65.1,-34.7,106.7
2015-08-15 10:02:00,BRW,21.99,70.60,16.69,94.47,71.8,-49.4,101.9
2015-08-15 10:03:00,BRW,22.00,70.60,16.69,94.48,99.3,-67.8,98.2
2015-08-15 10:04:00,BRW,22.02,70.60,16.69,94.49,101.8,-67.9,98.2
2015-08-15 10:05:00,BRW,22.04,70.60,16.69,94.50,94.8,-75.1,94.2
2015-08-15 10:06:00,BRW,22.05,70.60,16.69,94.51,91.5,-68.1,95.2
2015-08-15 10:07:00,BRW,22.07,70.60,16.69,94.52,74.7,-68.1,91.9
2015-08-15 10:08:00,BRW,22.09,70.60,16.69,94.52,67.9,-97.4,81.0
2015-08-15 10:09:00,BRW,22.10,70.60,16.69,94.53,69.7,-156.6,65.8
2015-08-15 10:10:00,BRW,22.12,70.60,16.69,94.54,70.9,-192.1,63.2
2015-08-15 10:11:00,BRW,22.14,70.60,16.69,94.55,47.4,-185.5,73.2
2015-08-15 10:12:00,BRW,22.15,70.60,16.69,94.55,26.3,-161.1,86.2
2015-08-15 10:13:00,BRW,22.17,70.60,16.69,94.56,30.5,-147.0,93.7
2015-08-15 10:14:00,BRW,22.19,70.60,16.69,94.57,41.5,-147.2,94.0
2015-08-15 10:15:00,BRW,22.20,70.60,16.69,94.57,37.5,-161.2,88.6
2015-08-15 10:16:00,BRW,22.22,70.60,16.69,94.58,31.2,-163.9,88.3
2015-08-15 10:17:00,BRW,22.24,70.60,16.69,94.58,27.5,-145.3,95.4
2015-08-15 10:18:00,BRW,22.25,70.60,16.69,94.59,3.7,-123.7,94.3
2015-08-15 10:19:00,BRW,22.27,70.60,16.69,94.59,-56.5,-110.3,81.6
2015-08-15 10:20:00,BRW,22.29,70.60,16.69,94.60,-130.3,-106.1,67.1
2015-08-15 10:21:00,BRW,22.30,70.60,16.69,94.60,-162.6,-113.9,58.2
2015-08-15 10:22:00,BRW,22.32,70.60,16.69,94.61,-155.3,-112.0,61.3
2015-08-15 10:23:00,BRW,22.34,70.60,16.69,94.61,-138.4,-95.1,72.7
2015-08-15 10:24:00,BRW,22.35,70.60,16.69,94.61,-138.7,-81.0,80.8
2015-08-15 10:25:00,BRW,22.37,70.60,16.69,94.62,-132.2,-76.3,82.8
2015-08-15 10:26:00,BRW,22.39,70.60,16.69,94.62,-111.8,-78.2,83.5
2015-08-15 10:27:00,BRW,22.40,70.60,16.69,94.62,-97.1,-85.8,83.2
2015-08-15 10:28:00,BRW,22.42,70.60,16.69,94.62,-87.4,-99.2,83.1
2015-08-15 10:29:00,BRW,22.44,70.60,16.69,94.62,-68.1,-120.4,79.8
2015-08-15 10:30:00,BRW,22.45,70.60,16.69,94.62,-69.4,-115.6,79.2
2015-08-15 10:31:00,BRW,22.47,70.60,16.69,94.62,-61.7,-116.1,80.9
2015-08-15 10:32:00,BRW,22.49,70.60,16.69,94.62,-50.3,-112.4,86.3
2015-08-15 10:33:00,BRW,22.50,70.60,16.69,94.62,-45.0,-102.2,94.2
2015-08-15 10:34:00,BRW,22.52,70.60,16.69,94.62,-20.9,-91.8,106.3
2015-08-15 10:35:00,BRW,22.54,70.60,16.69,94.62,-1.5,-84.0,117.2
2015-08-15 10:36:00,BRW,22.55,70.60,16.69,94.62,10.9,-69.1,125.9
2015-08-15 10:37:00,BRW,22.57,70.60,16.69,94.62,33.9,-67.4,130.0
2015-08-15 10:38:00,BRW,22.59,70.60,16.69,94.62,51.4,-74.1,128.5
2015-08-15 10:39:00,BRW,22.60,70.60,16.69,94.62,56.5,-61.6,130.8
2015-08-15 10:40:00,BRW,22.62,70.60,16.69,94.61,46.1,-50.5,131.1
2015-08-15 10:41:00,BRW,22.63,70.60,16.69,94.61,56.9,-57.0,128.2
2015-08-15 10:42:00,BRW,22.65,70.60,16.69,94.61,70.0,-59.1,125.5
2015-08-15 10:43:00,BRW,22.67,70.60,16.69,94.60,89.4,-58.2,125.3
2015-08-15 10:44:00,BRW,22.68,70.60,16.69,94.60,97.9,-57.2,126.0
2015-08-15 10:45:00,BRW,22.70,70.60,16.69,94.60,101.9,-56.9,125.4
2015-08-15 10:46:00,BRW,22.72,70.60,16.69,94.59,101.2,-48.5,123.7
2015-08-15 10:47:00,BRW,22.73,70.60,16.69,94.59,88.8,-32.1,124.1
2015-08-15 10:48:00,BRW,22.75,70.60,16.69,94.58,84.4,-20.7,122.1
2015-08-15 10:49:00,BRW,22.77,70.60,16.69,94.58,94.5,-14.6,119.5
2015-08-15 10:50:00,BRW,22.78,70.60,16.69,94.57,103.9,-19.5,114.6
2015-08-15 10:51:00,BRW,22.80,70.60,16.69,94.56,105.5,-25.5,108.1
2015-08-15 10:52:00,BRW,22.82,70.60,16.69,94.56,104.4,-29.8,103.6
2015-08-15 10:53:00,BRW,22.83,70.60,16.69,94.55,103.3,-18.8,104.4
2015-08-15 10:54:00,BRW,22.85,70.60,16.69,94.54,110.1,-7.0,105.9
2015-08-15 10:55:00,BRW,22.86,70.60,16.69,94.54,103.6,-2.3,101.9
2015-08-15 10:56:00,BRW,22.88,70.60,16.69,94.53,109.3,-9.7,94.6
2015-08-15 10:57:00,BRW,22.90,70.60,16.69,94.52,117.5,-20.5,88.0
2015-08-15 10:58:00,BRW,22.91,70.60,16.69,94.51,93.3,7.3,90.1
2015-08-15 10:59:00,BRW,22.93,70.60,16.69,94.50,100.3,9.5,87.5
2015-08-15 11:00:00,BRW,22.95,70.60,16.69,94.49,108.2,18.8,86.6
2015-08-15 11:01:00,BRW,22.96,70.60,16.69,94.48,106.6,22.8,84.3
2015-08-15 11:02:00,BRW,22.98,70.60,16.69,94.47,108.8,19.7,79.8
2015-08-15 11:03:00,BRW,22.99,70.60,16.69,94.46,94.3,33.2,79.1
2015-08-15 11:04:00,BRW,23.01,70.60,16.69,94.45,91.5,42.8,79.3
2015-08-15 11:05:00,BRW,23.03,70.60,16.69,94.44,93.4,52.4,79.5
2015-08-15 11:06:00,BRW,23.04,70.60,16.69,94.43,68.7,88.6,83.0
2015-08-15 11:07:00,BRW,23.06,70.60,16.69,94.42,83.3,69.0,74.9
2015-08-15 11:08:00,BRW,23.08,70.60,16.69,94.41,71.0,66.3,68.6
2015-08-15 11:09:00,BRW,23.09,70.60,16.69,94.39,72.2,56.0,64.1
2015-08-15 11:10:00,BRW,23.11,70.60,16.69,94.38,76.4,54.9,64.2
2015-08-15 11:11:00,BRW,23.12,70.60,16.69,94.37,77.1,50.3,63.0
2015-08-15 11:12:00,BRW,23.14,70.60,16.69,94.36,88.0,43.1,63.5
2015-08-15 11:13:00,BRW,23.16,70.60,16.69,94.34,108.0,32.9,63.7
2015-08-15 11:14:00,BRW,23.17,70.60,16.69,94.33,117.3,23.0,64.5
2015-08-15 11:15:00,BRW,23.19,70.60,16.69,94.31,126.5,12.2,64.5
2015-08-15 11:16:00,BRW,23.20,70.60,16.69,94.30,146.0,-0.8,66.7
2015-08-15 11:17:00,BRW,23.22,70.60,16.69,94.28,147.1,-9.3,68.3
2015-08-15 11:18:00,BRW,23.24,70.60,16.69,94.27,134.2,-16.9,68.4
2015-08-15 11:19:00,BRW,23.25,70.60,16.69,94.25,151.5,-18.7,72.6
2015-08-15 11:20:00,BRW,23.27,70.60,16.69,94.24,156.2,-17.3,77.2
2015-08-15 11:21:00,BRW,23.28,70.60,16.69,94.22,170.7,-32.7,78.3
2015-08-15 11:22:00,BRW,23.30,70.60,16.69,94.20,194.3,-51.8,80.0
2015-08-15 11:23:00,BRW,23.32,70.60,16.69,94.19,200.4,-54.4,85.6
2015-08-15 11:24:00,BRW,23.33,70.60,16.69,94.17,202.6,-51.7,93.4
2015-08-15 11:25:00,BRW,23.35,70.60,16.69,94.15,196.5,-63.3,99.1
2015-08-15 11:26:00,BRW,23.36,70.60,16.69,94.13,168.8,-85.7,100.2
2015-08-15 11:27:00,BRW,23.38,70.60,16.69,94.12,160.1,-88.0,113.7
2015-08-15 11:28:00,BRW,23.40,70.60,16.69,94.10,208.3,-185.1,113.5
2015-08-15 11:29:00,BRW,23.41,70.60,16.69,94.08,253.5,-320.9,111.1
2015-08-15 11:30:00,BRW,23.43,70.60,16.69,94.06,224.9,-371.7,131.7
2015-08-15 11:31:00,BRW,23.44,70.60,16.69,94.04,217.3,-417.1,153.9
2015-08-15 11:32:00,BRW,23.46,70.60,16.69,94.02,182.5,-430.4,178.7
2015-08-15 11:33:00,BRW,23.48,70.60,16.69,94.00,164.7,-414.2,204.3
2015-08-15 11:34:00,BRW,23.49,70.60,16.69,93.98,130.9,-379.0,224.2
2015-08-15 11:35:00,BRW,23.51,70.60,16.69,93.96,97.3,-325.2,239.0
2015-08-15 11:36:00,BRW,23.52,70.60,16.69,93.94,63.1,-241.4,251.2
2015-08-15 11:37:00,BRW,23.54,70.60,16.69,93.91,25.9,-182.4,248.5
2015-08-15 11:38:00,BRW,23.55,70.60,16.69,93.89,-7.8,-142.3,240.3
2015-08-15 11:39:00,BRW,23.57,70.60,16.69,93.87,-31.9,-123.7,229.5
2015-08-15 11:40:00,BRW,23.59,70.60,16.69,93.85,-51.6,-135.0,215.1
2015-08-15 11:41:00,BRW,23.60,70.60,16.69,93.82,-76.6,-120.4,205.6
2015-08-15 11:42:00,BRW,23.62,70.60,16.69,93.80,-66.7,-111.2,200.3
2015-08-15 11:43:00,BRW,23.63,70.60,16.69,93.78,-81.4,-105.5,197.8
2015-08-15 11:44:00,BRW,23.65,70.60,16.69,93.75,-117.6,-93.6,199.1
2015-08-15 11:45:00,BRW,23.66,70.60,16.69,93.73,-108.8,-92.2,194.8
2015-08-15 11:46:00,BRW,23.68,70.60,16.69,93.71,-88.4,-87.9,194.9
2015-08-15 11:47:00,BRW,23.70,70.60,16.69,93.68,-97.8,-30.8,202.8
2015-08-15 11:48:00,BRW,23.71,70.60,16.69,93.66,-105.2,4.8,195.9
2015-08-15 11:49:00,BRW,23.73,70.60,16.69,93.63,-130.6,-5.0,172.6
2015-08-15 11:50:00,BRW,23.74,70.60,16.69,93.60,-93.7,11.7,172.3
2015-08-15 11:51:00,BRW,23.76,70.60,16.69,93.58,-96.7,0.6,164.3
2015-08-15 11:52:00,BRW,23.77,70.60,16.69,93.55,-106.2,-16.3,159.0
2015-08-15 11:53:00,BRW,23.79,70.60,16.69,93.53,-115.4,-45.5,155.2
2015-08-15 11:54:00,BRW,23.80,70.60,16.69,93.50,-135.4,-56.2,161.7
2015-08-15 11:55:00,BRW,23.82,70.60,16.69,93.47,-149.1,-77.6,168.8
2015-08-15 11:56:00,BRW,23.84,70.60,16.69,93.44,-164.2,-81.3,179.7
2015-08-15 11:57:00,BRW,23.85,70.60,16.69,93.42,-151.2,-95.6,189.0
2015-08-15 11:58:00,BRW,23.87,70.60,16.69,93.39,-127.3,-83.5,203.9
2015-08-15 11:59:00,BRW,23.88,70.60,16.69,93.36,-144.4,-18.5,223.6
2015-08-15 12:00:00,BRW,23.90,70.60,16.69,93.33,-146.1,-0.9,228.6
2015-08-15 12:01:00,BRW,23.91,70.60,16.69,93.30,-150.7,-56.0,214.2
2015-08-15 12:02:00,BRW,23.93,70.60,16.69,93.27,-204.6,-84.9,214.1
2015-08-15 12:03:00,BRW,23.94,70.60,16.69,93.24,-257.5,-68.2,229.2
2015-08-15 12:04:00,BRW,23.96,70.60,16.69,93.21,-260.9,-73.6,236.2
2015-08-15 12:05:00,BRW,23.97,70.60,16.69,93.18,-248.8,-120.0,226.3
2015-08-15 12:06:00,BRW,23.99,70.60,16.69,93.15,-309.9,-126.6,217.3
2015-08-15 12:07:00,BRW,0.00,70.60,16.69,93.12,-354.7,-103.9,221.7
2015-08-15 12:08:00,BRW,0.02,70.60,16.69,93.09,-324.8,-103.4,237.6
2015-08-15 12:09:00,BRW,0.03,70.60,16.69,93.05,-292.7,-120.4,246.1
2015-08-15 12:10:00,BRW,0.05,70.60,16.69,93.02,-301.6,-107.4,254.9
2015-08-15 12:11:00,BRW,0.07,70.60,16.69,92.99,-356.4,-80.7,249.4
2015-08-15 12:12:00,BRW,0.08,70.60,16.69,92.96,-307.8,-55.7,260.7
2015-08-15 12:13:00,BRW,0.10,70.60,16.69,92.92,-241.3,-26.4,281.9
2015-08-15 12:14:00,BRW,0.11,70.60,16.69,92.89,-174.0,2.4,303.4
2015-08-15 12:15:00,BRW,0.13,70.60,16.69,92.86,-180.0,14.4,296.2
2015-08-15 12:16:00,BRW,0.14,70.60,16.69,92.82,-155.2,-2.5,279.3
2015-08-15 12:17:00,BRW,0.16,70.60,16.69,92.79,-124.0,-3.3,265.9
2015-08-15 12:18:00,BRW,0.17,70.60,16.69,92.75,-99.4,-17.7,250.1
2015-08-15 12:19:00,BRW,0.19,70.60,16.69,92.72,-101.8,-16.1,235.2
2015-08-15 12:20:00,BRW,0.20,70.60,16.69,92.68,-158.8,19.2,230.1
2015-08-15 12:21:00,BRW,0.22,70.60,16.69,92.65,-185.7,26.2,221.7
2015-08-15 12:22:00,BRW,0.23,70.60,16.69,92.61,-179.9,7.1,213.2
2015-08-15 12:23:00,BRW,0.25,70.60,16.69,92.58,-215.0,-1.7,207.5
2015-08-15 12:24:00,BRW,0.26,70.60,16.69,92.54,-236.6,4.2,207.8
2015-08-15 12:25:00,BRW,0.28,70.60,16.69,92.50,-249.6,7.3,208.1
2015-08-15 12:26:00,BRW,0.29,70.60,16.69,92.47,-251.3,5.1,210.2
2015-08-15 12:27:00,BRW,0.31,70.60,16.69,92.43,-274.7,25.0,218.5
2015-08-15 12:28:00,BRW,0.32,70.60,16.69,92.39,-256.4,23.0,225.9
2015-08-15 12:29:00,BRW,0.34,70.60,16.69,92.36,-221.5,-0.6,229.7
2015-08-15 12:30:00,BRW,0.35,70.60,16.69,92.32,-186.5,-33.7,233.4
2015-08-15 12:31:00,BRW,0.37,70.60,16.69,92.28,-172.6,-56.1,237.5
2015-08-15 12:32:00,BRW,0.38,70.60,16.69,92.24,-134.0,-78.9,244.8
2015-08-15 12:33:00,BRW,0.40,70.60,16.69,92.20,-140.9,-88.4,252.5
2015-08-15 12:34:00,BRW,0.41,70.60,16.69,92.16,-168.3,-70.2,264.4
2015-08-15 12:35:00,BRW,0.43,70.60,16.69,92.12,-144.2,-64.9,282.2
2015-08-15 12:36:00,BRW,0.44,70.60,16.69,92.08,-104.1,-86.4,296.6
2015-08-15 12:37:00,BRW,0.46,70.60,16.69,92.04,-89.3,-78.2,314.5
2015-08-15 12:38:00,BRW,0.47,70.60,16.69,92.00,-84.4,-75.0,324.1
2015-08-15 12:39:00,BRW,0.49,70.60,16.69,91.96,-95.0,-58.4,327.9
2015-08-15 12:40:00,BRW,0.50,70.60,16.69,91.92,-98.7,-63.8,325.4
2015-08-15 12:41:00,BRW,0.52,70.60,16.69,91.88,-90.2,-70.1,325.3
2015-08-15 12:42:00,BRW,0.53,70.60,16.69,91.84,-70.9,-101.5,323.3
2015-08-15 12:43:00,BRW,0.54,70.60,16.69,91.80,-57.8,-134.7,320.9
2015-08-15 12:44:00,BRW,0.56,70.60,16.69,91.75,-37.5,-164.7,325.7
2015-08-15 12:45:00,BRW,0.57,70.60,16.69,91.71,12.5,-154.1,343.7
2015-08-15 12:46:00,BRW,0.59,70.60,16.69,91.67,38.3,-130.0,358.5
2015-08-15 12:47:00,BRW,0.60,70.60,16.69,91.63,72.0,-151.2,355.8
2015-08-15 12:48:00,BRW,0.62,70.60,16.69,91.58,89.9,-139.9,354.0
2015-08-15 12:49:00,BRW,0.63,70.60,16.69,91.54,85.8,-126.8,353.0
2015-08-15 12:50:00,BRW,0.65,70.60,16.69,91.49,96.8,-125.6,348.5
2015-08-15 12:51:00,BRW,0.66,70.60,16.69,91.45,109.8,-121.7,342.8
2015-08-15 12:52:00,BRW,0.68,70.60,16.69,91.41,107.9,-120.5,336.4
2015-08-15 12:53:00,BRW,0.69,70.60,16.69,91.36,113.4,-101.3,334.3
2015-08-15 12:54:00,BRW,0.71,70.60,16.69,91.32,110.4,-73.1,333.2
2015-08-15 12:55:00,BRW,0.72,70.60,16.69,91.27,101.8,-61.5,327.6
2015-08-15 12:56:00,BRW,0.74,70.60,16.69,91.23,93.8,-69.4,316.0
2015-08-15 12:57:00,BRW,0.75,70.60,16.69,91.18,100.2,-51.3,313.4
2015-08-15 12:58:00,BRW,0.77,70.60,16.69,91.13,101.7,-42.2,306.0
2015-08-15 12:59:00,BRW,0.78,70.60,16.69,91.09,96.1,-32.9,297.2
2015-08-15 13:00:00,BRW,0.79,70.60,16.69,91.04,87.2,-27.6,288.8
